Погода в Тумуле

Россия / Республика Саха (Якутия)     61°10′47″N   127°32′08″E
темп.,
°C
ветер,
м/с
пор.,
м/с
влажн.,
%
обл.,
%
осадки,
мм/ч
давл.,
гПа
погр.,
м
1 марта, пн
пн100:00−26зсз41093100 0.2 1028873
03:00−26зсз41093100 0.3 1028736
06:00−26з4994100 0.1 1028700
09:00−26з5991100 0.2 1028678
12:00−25з5887100 0.1 1028782
15:00−25з4784100 0.1 1027872
18:00−26з2793100 0.0 1028294
21:00−29з269799 0.1 1028144
2 марта, вт
вт200:00−31з229898 0.0 102840
03:00−33з229894 0.0 102819
06:00−34з229877 0.0 102819
09:00−32зюз129768 0.0 102879
12:00−27з238374 0.0 1027441
15:00−25зсз127787 0.0 1025658
18:00−30св019091 0.0 102519
21:00−33в119460 0.0 102619
3 марта, ср
ср300:00−34всв129766 0.0 102519
03:00−35в129967 0.0 102519
06:00−36всв1110056 0.0 102419
09:00−34всв119758 0.0 102434
12:00−27ссв118379 0.0 1021345
15:00−25ссз127989 0.0 1020623
18:00−30ссз239496 0.0 102021
21:00−33зсз229790 0.0 102232
4 марта, чт
чт400:00−33з3797100 0.0 1021252
03:00−32з3894100 0.1 1021467
06:00−32з41093100 0.1 1021605
09:00−31з4991100 0.2 1021694
12:00−30з5886100 0.1 1021921
15:00−29зсз4885100 0.2 10221078
18:00−29зсз3792100 0.1 10231001
21:00−30зсз3993100 0.1 1025668
5 марта, пт
пт500:00−33з389691 0.0 1026246
03:00−33з3119696 0.0 1027455
06:00−32зсз41294100 0.0 1028596
09:00−30зсз51288100 0.0 1028746
12:00−28зсз51086100 0.0 1028769
15:00−27зсз51085100 0.1 1028709
18:00−29зсз41191100 0.0 1029652
21:00−29зсз41393100 0.0 1030633